Location: Unspecified
(0.0000°N, 0.0000°E)
Time: 19:47:45
(UTC+00:00)

Envisat - Pass Details

Date: 23 October 2021
Orbit: 764 x 766 km, 98.2° (Epoch: 24 October)

Event Time Altitude Azimuth Distance (km) Brightness Sun altitude
Rises 03:29:58 0° 53° (NE) 3,217 6.7 -32.8°
Reaches altitude 10° 03:34:20 10° 89° (E) 2,296 6.3 -31.8°
Maximum altitude 03:35:32 11° 103° (ESE) 2,241 6.3 -31.5°
Drops below altitude 10° 03:36:45 10° 117° (ESE) 2,298 6.3 -31.2°
Sets 03:41:06 0° 153° (SSE) 3,229 6.8 -30.1°
